www.pogodaiklimat.ru
Время
(UTC), дата
03 20.05
06 20.05
09 20.05
12 20.05
15 20.05
18 20.05
21 20.05
00 21.05
03 21.05
06 21.05
09 21.05
12 21.05
15 21.05
18 21.05
21 21.05
00 22.05
03 22.05
06 22.05
09 22.05
12 22.05
15 22.05
18 22.05
21 22.05
00 23.05
03 23.05
06 23.05
09 23.05
12 23.05
15 23.05
18 23.05
21 23.05
00 24.05
03 24.05
06 24.05
09 24.05
12 24.05
15 24.05
18 24.05
21 24.05
00 25.05
03 25.05
06 25.05
09 25.05
12 25.05
15 25.05
18 25.05
21 25.05
00 26.05
03 26.05
06 26.05
09 26.05
12 26.05
15 26.05
18 26.05
21 26.05
00 27.05
Ветер
(напр.,м/с)
Видим. Явления Облачность Т
(С)
Тd
(С)
f
(%)
Тe
(С)
Тes
(С)
Комфортность P
(гПа)
Po
(гПа)
Тmin
(С)
Tmax
(С)
R
(мм)
R24
(мм)
S
(см)
штиль 0 20 км 10/0
[Ci]
+13.6 +8.5 71 +13 +14 по сезону 1016.9 1009.5 +11.0
ЮВ 2 20 км 10/0
[Ci]
+18.7 +11.9 65 +20 +28 тепло 1016.0 1008.8
Ю 2 20 км 10/5 1000 м
[Cu med, cong Ci sp]
+20.5 +14.7 69 +24 +31 комфорт 1015.2 1008.0
ЮВ 2 20 км 8/4 1000 м
[Cu Sc Ci sp]
+19.6 +14.4 72 +22 +29 комфорт 1013.5 1006.3
ЮВ 1 20 км 9/4 1000 м
[Sc Ci sp]
+19.7 +8.2 47 +22 +23 комфорт 1011.0 1003.8 +23.0
штиль 0 10 км 8/4 1000 м
[Sc Ci sp]
+19.1 +6.0 42 +19 +19 тепло 1010.3 1003.1
С 2 10 км 4/0
[Ci sp]
+17.9 +2.5 36 +18 +18 тепло 1009.5 1002.3
СВ 1 10 км ясно +17.0 +4.5 43 +18 +18 тепло 1008.0 1000.8
СВ 1 20 км 3/0
[Ci fib]
+16.7 +5.8 49 +18 +18 тепло 1007.2 1000.0 +15.4
СВ 2 20 км 10/0
[Ci]
+22.8 +7.0 36 +24 +32 комфорт 1006.7 999.6
ЮВ 2 20 км 10/3 1000 м
[Sc Ac trans Ci]
+24.8 +7.0 32 +25 +31 комфорт 1006.3 999.3
В 2
{17}
20 км 9/3 1000 м
[Sc Ac trans Ci fib]
+26.2 +7.7 31 +26 +31 жарко 1005.9 998.9
В 1 20 км 10/6 1000 м
[Cb cap Ci]
+26.6 +9.8 35 +27 +28 жарко 1004.3 997.3 +28.4
Ю 1 10 км {ливн. осадки} 10/8 1000 м
[Cb cap Ci]
+23.8 +10.4 43 +25 +25 комфорт 1006.9 999.8
СЗ 2 10 км 10/6 1000 м
[Cb cap Ci]
+23.2 +9.2 41 +25 +25 комфорт 1003.4 996.4
С 5-12
{12}
4000 м слаб. ливневой дождь 10/10 600 м
[Cb cap]
+17.1 +11.6 70 +16 +16 тепло 1007.2 1000.0
СВ 3
{12}
10 км слаб. ливневой дождь {гроза} 10/8 600 м
[Cb cap Ac trans Ci]
+17.4 +12.6 73 +17 +17 тепло 1004.2 997.0 +16.0 0.9
СЗ 2 20 км гроза без осадков {ливн. осадки} 10/6 1000 м
[Cb calv Ac As]
+18.9 +14.9 78 +21 +22 комфорт 1005.3 998.1
СВ 2 20 км гроза без осадков {ливн. осадки} 9/6 1000 м
[Cb cap Ac und Ci fib]
+18.9 +13.1 69 +20 +25 тепло 1005.8 998.6
СВ 4 20 км гроза без осадков {ливн. осадки} [макс. диам. градин 5 мм] 10/5 1000 м
[Cb cap Ac cast Ci fib]
+18.7 +12.3 66 +19 +22 по сезону 1005.5 998.3
С 4
{11}
10 км гроза, ливневой дождь 10/10 1000 м
[Cb cap]
+14.6 +10.4 76 +13 +13 холодно 1007.8 1000.5 +21.0 3
С 3
{11}
10 км гроза без осадков {ливн. осадки} 10/10 1000 м
[Cb cap]
+13.0 +8.3 73 +12 +12 прохладно 1010.7 1003.3
СВ 4
{12}
10 км в посл. час гроза {ливн. осадки} 10/10 1000 м
[Cb cap]
+11.2 +5.5 68 +9 +9 холодно 1012.2 1004.8
С 2
{12}
4000 м слаб. ливневой дождь {гроза} 10/10 600 м
[Cb cap]
+9.1 +6.0 81 +7 +7 холодно 1014.2 1006.7
СВ 4-12
{12}
20 км в посл. час ливневой дождь 10/8 1000 м
[Cb cap Ci ing]
+9.7 +4.3 69 +7 +7 очень
холодно
1015.4 1007.9 +8.7 10
СЗ 1
{12}
20 км в посл. час ливневой дождь 10/8 1000 м
[Cb cap Ci sp]
+11.4 +5.6 67 +11 +13 холодно 1017.7 1010.2
ЮЗ 3 20 км 8/5 1000 м
[Cb cap Ci sp]
+16.9 +8.1 56 +17 +24 по сезону 1019.2 1011.9
ЮЗ 2 20 км 8/4 1000 м
[Cb cap Ci sp]
+17.8 +6.4 47 +18 +25 по сезону 1019.7 1012.4
ЮЗ 1 20 км 8/3 1000 м
[Cu med, cong Ci sp]
+16.5 +5.6 48 +17 +19 по сезону 1020.5 1013.2 +19.4 0.0
С 1 10 км 10/3 1000 м
[Cu Sc Ci sp]
+12.5 +5.8 64 +13 +13 прохладно 1021.1 1013.7
СВ 1 10 км ясно +9.7 +6.0 78 +9 +9 холодно 1021.7 1014.2
С 2 10 км ясно +9.4 +5.3 76 +8 +8 холодно 1021.0 1013.5
СВ 2 20 км 6/3 1000 м
[Sc Ci fib]
+9.6 +3.9 68 +8 +9 очень
холодно
1021.5 1014.0 +8.5
СВ 2 20 км 10/1 1000 м
[Cu med, cong Ci]
+16.5 +1.2 36 +17 +24 по сезону 1021.7 1014.3
СВ 2 20 км 8/4 1000 м
[Cu med, cong Ci sp]
+19.4 +2.0 31 +20 +30 тепло 1021.7 1014.4
З 4
{11}
20 км 3/3 1000 м
[Cu med, cong Ci sp]
+19.2 +5.2 40 +20 +26 по сезону 1021.9 1014.6
З 3-12
{12}
20 км 3/3 1000 м
[Cu med, cong Ci sp]
+17.0 +5.5 47 +17 +18 по сезону 1022.2 1014.9 +22.3
С 2
{12}
10 км 3/0
[Ci sp]
+15.0 +2.8 44 +15 +15 по сезону 1022.5 1015.1
СВ 4 10 км 8/0
[Ci sp]
+16.0 +1.5 37 +15 +15 по сезону 1021.4 1014.0
СВ 3
{10}
10 км 4/0
[Ci sp]
+15.4 +1.5 39 +15 +15 по сезону 1019.0 1011.6
В 2
{11}
20 км 8/0
[Ac cast]
+16.2 +2.4 39 +16 +17 по сезону 1017.1 1009.8 +14.1
ЮВ 2 20 км 10/8 1000 м
[Cb cap Ac trans Ci]
+14.6 +7.9 64 +14 +15 прохладно 1016.6 1009.2
штиль 0 20 км 10/6 1000 м
[Cb cap Ac trans Ci sp]
+15.8 +10.3 70 +16 +21 прохладно 1017.3 1010.0
ЮЗ 1 10 км слаб. ливневой дождь 10/10 600 м
[Cb cap]
+14.7 +12.2 85 +15 +15 холодно 1016.8 1009.5
штиль 0 10 км слаб. ливневой дождь 10/10 600 м
[Cb cap]
+13.4 +11.8 90 +13 +13 холодно 1017.6 1010.2 +16.8 5
В 2 4000 м слаб. ливневой дождь 10/10 600 м
[Cb cap]
+13.0 +11.6 91 +12 +12 прохладно 1018.3 1010.9
ЮВ 4 10 км в посл. час ливневой дождь 10/8 600 м
[Cb cap Ci]
+12.7 +11.0 89 +11 +11 прохладно 1018.6 1011.2
ЮВ 7-14
{14}
10 км {ливн. осадки} 10/8 1000 м
[Cb cap Ci fib]
+14.0 +11.3 84 +12 +12 по сезону 1019.1 1011.7
ЮВ 7-13
{16}
10 км слаб. ливневой дождь 10/10 600 м
[Cb cap]
+12.8 +10.8 88 +10 +10 прохладно 1020.9 1013.5 +12.4 6
ЮВ 6-12
{14}
10 км в посл. час ливневой дождь 10/8 600 м
[Cb cap Ac trans Ci fib]
+13.8 +10.5 80 +12 +12 прохладно 1022.2 1014.8 +12.0
ЮВ 4
{11}
20 км 9/3 1000 м
[Cb cap Ac trans]
+16.1 +11.3 73 +15 +20 по сезону 1022.9 1015.5
ЮЗ 2 20 км 1/1 1000 м
[Cu hum]
+19.8 +11.7 60 +22 +34 комфорт 1021.6 1014.3
З 1 20 км 1/1 1000 м
[Cu hum]
+18.4 +10.3 59 +20 +22 тепло 1019.7 1012.4 +20.4 0.6
СВ 3 10 км 1/0
[Ac trans]
+19.0 +10.0 56 +20 +20 тепло 1018.2 1011.0
СВ 4 10 км ясно +18.0 +9.8 59 +18 +18 тепло 1016.3 1009.0
С 2 10 км ясно +16.8 +9.3 61 +17 +17 тепло 1016.0 1008.7
Местоположение метеостанции Туапсе (Краснодарский край, Россия): широта 44.10 долгота 39.07 высота над уровнем моря 62 м.
В архиве по умолчанию представлена погода в Туапсе за последнюю неделю. Архивные данные за месяц целиком и за предыдущие месяцы, начиная с января 2011 года, Вы можете получить, выбрав интересующий диапазон дат из раскрывающегося списка и нажав кнопку "Найти!".
*Определитесь, кто Вы:
Внимание! Время в таблицах - всемирное. Для получения местного времени необходимо прибавить поправку, которая равна 3 ч.
Смотрите также архив погоды в соседних городах и на ближайших метеорологических станциях:
Партнеры нашего сайта:      
Пояснения к столбцам:
  • Ветер - указаны скорость ветра в м/с - средняя за 10 мин, порывы в срок и между сроками (в фигурных скобках) и направление, откуда дует ветер: С - северный,
  • СВ - северо-восточный, В - восточный, ЮВ - юго-восточный, Ю - южный, ЮЗ - юго-западный, З - западный, СЗ - северо-западный.
  • Видимость - горизонтальная дальность видимости в метрах или километрах. При видимости от 1 до 10 км при отсутствии осадков обычно наблюдается дымка, при ухудшении видимости до 1 км и менее - туман. В сухую погоду видимость может ухудшаться дымом, пылью или мглою.
  • Явления - указаны атмосферные явления, наблюдавшиеся в срок или в последний час перед сроком; фигурными скобками обозначены явления, наблюдавшиеся между сроками (за 1-3 часа до срока); квадратными скобками обозначены град или гололедные отложения с указанием их диаметра в мм.
  • Облачность - указаны через наклонную черту общая и нижняя облачность в баллах и высота нижней границы облаков в метрах; квадратными скобками обозначены формы облаков: Ci - перистые, Cs - перисто-слоистые, Cc - перисто-кучевые, Ac - высококучевые, As - высокослоистые, Sc - слоисто-кучевые, Ns - слоисто-дождевые, Cu - кучевые, Cb - кучево-дождевые. Подробнее классификацию облаков см. в Атласе облаков (PDF).
  • T - Температура воздуха - температура, измеренная на высоте 2 м над землей.
  • Td - Температура точки росы - температура, при понижении до которой содержащийся в воздухе водяной пар достигнет насыщения.
  • f - Относительная влажность воздуха - влажноcть воздуха, измеренная на высоте 2 м над землей.
  • Te - Эффективная температура - температура, которую ощущает одетый по сезону человек в тени. Характеристика душности погоды. При расчете учитывается влияние влажности воздуха и скорости ветра на теплоощущения человека.
  • Tes - Эффективная температура на солнце - температура, которую ощущает человек, с поправкой на солнечный нагрев. Характеристика знойности погоды. Зависит от высоты солнца над горизонтом, облачности и скорости ветра. Ночью, в пасмурную погоду, а также при ветре 12 м/с и более поправка равна нулю.
  • P - Атмосферное давление - приведенное к уровню моря атмосферное давление.
  • Po - Атмосферное давление - измеренное на уровне метеостанции атмосферное давление.
  • Tmin - Минимальная температура - минимум температуры воздуха на высоте 2 м над землей.
  • Tmax - Максимальная температура - максимум температуры воздуха на высоте 2 м над землей.
  • R - Количество осадков - Количество выпавших осадков за период времени, мм. При наведении курсора мыши на число - период времени, за который выпало указанное количество осадков.
  • R24 - Количество осадков - Количество выпавших осадков за 24 часа, мм.
  • S - Снежный покров - Высота снежного покрова, см. При наведении курсора мыши на число - состояние снежного покрова и степень покрытия местности в баллах.